Location: Radomski Observatory
(40.2854°N, 79.5145°W)
Time: 21:53:25
(UTC-04:00)

Amateur Radio Satellites - All Passes

Search period start: 31 October 2014 21:23
Search period end: 01 November 2014 21:23
Location: Radomski Observatory, 40.2854°N, 79.5145°W

Satellite Date Start Highest point End Downlink Frequencies (MHz)
Time Altitude Azimuth
Oscar 11 31 Oct 21:23:32 21:26:59 24° 68° (ENE) 21:30:26 145.825 FM, Beacon 2401.500 USB
UOSAT-12 31 Oct 21:27:01 21:31:14 31° 48° (NE) 21:35:22 437.025 FM, 437.400 FM
STRAND 1 31 Oct 21:41:06 21:44:23 17° 298° (WNW) 21:47:39 ?
FUNcube-1 31 Oct 21:41:42 21:44:36 17° 66° (ENE) 21:47:27 145.950 - 145.970 MHz USB
MaSat-1 31 Oct 21:48:59 21:52:00 21° 109° (ESE) 21:54:48 437.345 MHz
RS-15 31 Oct 21:49:11 22:00:11 82° 119° (ESE) 22:11:08 29.354 - 29.394 USB, Beacon 29.352 USB
HO-68 31 Oct 21:50:44 21:57:48 62° 257° (WSW) 22:04:56 435.675 MHz FM
UKube-1 31 Oct 22:23:49 22:28:08 67° 258° (WSW) 22:32:30 145.840 MHz, 145.915 MHz
KITSAT 1 31 Oct 22:27:25 22:33:10 22° 257° (WSW) 22:38:56 435.175 FM
ZACube-1 31 Oct 22:33:19 22:37:47 60° 74° (ENE) 22:42:10 437.345 MHz
Oscar 11 31 Oct 22:59:15 23:03:01 29° 264° (W) 23:06:48 145.825 FM, Beacon 2401.500 USB
UOSAT-12 31 Oct 23:07:10 23:11:21 32° 246° (WSW) 23:15:27 437.025 FM, 437.400 FM
FUNcube-1 31 Oct 23:16:15 23:20:37 46° 261° (W) 23:24:55 145.950 - 145.970 MHz USB
MaSat-1 31 Oct 23:24:02 23:27:16 26° 301° (WNW) 23:30:15 437.345 MHz
RS-15 01 Nov 00:04:15 00:13:48 33° 324° (NW) 00:23:28 29.354 - 29.394 USB, Beacon 29.352 USB
ZACube-1 01 Nov 00:12:35 00:14:30 12° 269° (W) 00:16:24 437.345 MHz
Oscar 16 01 Nov 01:42:19 01:45:21 16° 91° (E) 01:48:23 437.025 USB, Beacon 2401.1428
Sapphire 01 Nov 01:53:25 01:57:43 25° 107° (ESE) 02:02:01 437.095 MHz 1200 baud AX-25 AFSK
AO-Echo 01 Nov 02:13:06 02:16:32 17° 91° (E) 02:19:55 ?
PCSat 01 Nov 02:14:07 02:19:09 41° 111° (ESE) 02:24:12 145.825 MHz
JAS-1B 01 Nov 02:15:04 02:21:55 41° 99° (E) 02:29:56 435.800 - 435.900 CW/SSB
Uribyol 2 01 Nov 02:16:38 02:19:11 14° 90° (E) 02:21:42 436.500 FM
RS-15 01 Nov 02:23:53 02:31:02 19° 359° (N) 02:38:17 29.354 - 29.394 USB, Beacon 29.352 USB
ITAMSAT 1 01 Nov 02:24:19 02:27:21 15° 91° (E) 02:30:22 435.822 SSB
Oscar 19 01 Nov 02:32:53 02:37:51 48° 100° (E) 02:42:47 437.125 CW, 437.150 USB
AO-27 01 Nov 03:10:36 03:15:36 44° 99° (E) 03:20:32 436.795 MHz FM
Oscar 16 01 Nov 03:20:02 03:25:05 59° 287° (WNW) 03:30:06 437.025 USB, Beacon 2401.1428
Gurwin Techsat 1B 01 Nov 03:29:16 03:34:08 35° 97° (E) 03:38:58 435.225 FM
TMSAT-1 01 Nov 03:35:25 03:40:03 30° 96° (E) 03:44:39 436.925 FM
Sapphire 01 Nov 03:35:39 03:40:50 46° 304° (NW) 03:46:03 437.095 MHz 1200 baud AX-25 AFSK
AO-Echo 01 Nov 03:50:25 03:55:39 58° 287° (WNW) 04:00:48 ?
Uribyol 2 01 Nov 03:53:57 03:59:08 69° 286° (WNW) 04:04:16 436.500 FM
PCSat 01 Nov 03:57:58 04:02:39 29° 309° (NW) 04:07:23 145.825 MHz
AO-7 01 Nov 04:00:51 04:05:21 15° 89° (E) 04:09:50 29.400 - 29.500 MHz
ITAMSAT 1 01 Nov 04:02:06 04:07:16 62° 287° (WNW) 04:12:22 435.822 SSB
JAS-1B 01 Nov 04:05:49 04:12:26 42° 292° (WNW) 04:20:13 435.800 - 435.900 CW/SSB
Oscar 19 01 Nov 04:13:06 04:16:49 21° 296° (WNW) 04:20:32 437.125 CW, 437.150 USB
RS-15 01 Nov 04:38:50 04:48:26 32° 34° (NE) 04:58:18 29.354 - 29.394 USB, Beacon 29.352 USB
PANSAT 01 Nov 04:48:07 04:49:39 12° 171° (S) 04:51:11 not established
AO-27 01 Nov 04:50:46 04:54:48 23° 296° (WNW) 04:58:49 436.795 MHz FM
Gurwin Techsat 1B 01 Nov 05:09:27 05:13:57 29° 293° (WNW) 05:18:26 435.225 FM
TMSAT-1 01 Nov 05:15:13 05:19:56 34° 292° (WNW) 05:24:38 436.925 FM
Saudisat 1A 01 Nov 05:18:35 05:21:56 22° 112° (ESE) 05:25:18 436.775 MHz
OPAL 01 Nov 05:18:36 05:23:33 53° 70° (ENE) 05:28:28 ?
STRAND 1 01 Nov 05:41:50 05:42:44 10° 58° (ENE) 05:43:38 ?
Uosat F 01 Nov 05:42:19 05:47:22 67° 102° (ESE) 05:52:22 435.120 FM
JAS-2 01 Nov 05:46:47 05:53:33 31° 92° (E) 06:00:02 435.800 - 435.900 CW/SSB, 435.910 FM
AO-7 01 Nov 05:50:51 05:59:14 83° 107° (ESE) 06:07:36 29.400 - 29.500 MHz
Hamsat 01 Nov 06:26:53 06:30:31 27° 96° (E) 06:34:08 145.90 MHz
PANSAT 01 Nov 06:27:04 06:29:04 14° 184° (S) 06:31:03 not established
RS-15 01 Nov 06:51:07 07:02:22 89° 240° (WSW) 07:14:07 29.354 - 29.394 USB, Beacon 29.352 USB
Saudisat 1A 01 Nov 06:57:08 07:01:15 39° 308° (NW) 07:05:23 436.775 MHz
OPAL 01 Nov 06:59:20 07:02:43 18° 265° (W) 07:06:05 ?
STRAND 1 01 Nov 07:15:55 07:21:03 82° 75° (ENE) 07:26:14 ?
Uosat F 01 Nov 07:22:43 07:25:34 15° 299° (WNW) 07:28:25 435.120 FM
JAS-2 01 Nov 07:31:10 07:38:49 57° 290° (WNW) 07:46:12 435.800 - 435.900 CW/SSB, 435.910 FM
MaSat-1 01 Nov 07:33:21 07:35:21 21° 58° (ENE) 07:37:16 437.345 MHz
AO-7 01 Nov 07:44:58 07:51:05 24° 306° (NW) 07:57:12 29.400 - 29.500 MHz
Hamsat 01 Nov 08:02:55 08:06:20 24° 291° (WNW) 08:09:47 145.90 MHz
SO-67 01 Nov 08:20:10 08:23:38 73° 101° (ESE) 08:27:03 435.3500 MHz FM
STRAND 1 01 Nov 08:59:25 09:00:50 11° 271° (W) 09:02:16 ?
RS-15 01 Nov 09:05:28 09:13:15 22° 259° (W) 09:21:17 29.354 - 29.394 USB, Beacon 29.352 USB
JAS-2 01 Nov 09:19:27 09:22:10 12° 309° (NW) 09:24:52 435.800 - 435.900 CW/SSB, 435.910 FM
HO-68 01 Nov 09:19:37 09:25:31 27° 94° (E) 09:31:22 435.675 MHz FM
ISS 01 Nov 09:50:55 09:53:55 33° 136° (SE) 09:56:57 145.800 FM
UKube-1 01 Nov 10:13:11 10:16:30 21° 95° (E) 10:19:48 145.840 MHz, 145.915 MHz
ZACube-1 01 Nov 10:25:43 10:26:46 11° 90° (E) 10:27:48 437.345 MHz
Sapphire 01 Nov 10:41:19 10:45:24 21° 46° (NE) 10:49:28 437.095 MHz 1200 baud AX-25 AFSK
Oscar 11 01 Nov 10:46:40 10:50:52 49° 100° (E) 10:55:03 145.825 FM, Beacon 2401.500 USB
KITSAT 1 01 Nov 10:57:48 11:05:40 59° 113° (ESE) 11:13:33 435.175 FM
SO-50 01 Nov 10:59:01 11:03:07 37° 115° (ESE) 11:07:21 436.795 FM
PCSat 01 Nov 11:02:27 11:07:17 31° 51° (NE) 11:12:05 145.825 MHz
FUNcube-1 01 Nov 11:06:02 11:09:48 32° 97° (E) 11:13:31 145.950 - 145.970 MHz USB
HO-68 01 Nov 11:06:33 11:13:33 57° 292° (WNW) 11:20:31 435.675 MHz FM
ISS 01 Nov 11:27:36 11:30:36 31° 332° (NNW) 11:33:37 145.800 FM
UKube-1 01 Nov 11:48:49 11:52:44 33° 290° (WNW) 11:56:38 145.840 MHz, 145.915 MHz
ZACube-1 01 Nov 11:59:26 12:03:33 57° 286° (WNW) 12:07:36 437.345 MHz
Sapphire 01 Nov 12:23:54 12:29:17 64° 245° (WSW) 12:34:37 437.095 MHz 1200 baud AX-25 AFSK
Oscar 11 01 Nov 12:24:12 12:26:38 15° 295° (WNW) 12:29:03 145.825 FM, Beacon 2401.500 USB
SO-50 01 Nov 12:39:55 12:43:45 26° 313° (NW) 12:47:41 436.795 FM
FUNcube-1 01 Nov 12:42:55 12:45:58 20° 293° (WNW) 12:48:59 145.950 - 145.970 MHz USB
PCSat 01 Nov 12:45:45 12:50:44 38° 249° (WSW) 12:55:41 145.825 MHz
KITSAT 1 01 Nov 12:54:12 13:01:26 35° 314° (NW) 13:08:44 435.175 FM
HO-68 01 Nov 12:58:07 12:59:44 11° 311° (NW) 13:01:22 435.675 MHz FM
Oscar 16 01 Nov 12:58:35 13:02:34 23° 65° (ENE) 13:06:33 437.025 USB, Beacon 2401.1428
JAS-1B 01 Nov 13:02:45 13:07:18 25° 63° (ENE) 13:11:54 435.800 - 435.900 CW/SSB
ISS 01 Nov 13:06:32 13:08:06 13° 352° (N) 13:09:41 145.800 FM
UOSAT-12 01 Nov 13:16:58 13:21:36 85° 121° (ESE) 13:26:20 437.025 FM, 437.400 FM
AO-Echo 01 Nov 13:25:33 13:29:15 21° 64° (ENE) 13:33:03 ?
Uribyol 2 01 Nov 13:33:33 13:37:25 22° 64° (ENE) 13:41:18 436.500 FM
ITAMSAT 1 01 Nov 13:41:31 13:45:36 24° 65° (ENE) 13:49:43 435.822 SSB
Saudisat 1A 01 Nov 13:45:14 13:48:22 19° 44° (NE) 13:51:31 436.775 MHz
Oscar 19 01 Nov 13:49:12 13:54:17 67° 74° (ENE) 13:59:23 437.125 CW, 437.150 USB
AO-27 01 Nov 14:28:08 14:33:17 64° 73° (ENE) 14:38:28 436.795 MHz FM
Oscar 16 01 Nov 14:36:46 14:41:38 43° 261° (W) 14:46:32 437.025 USB, Beacon 2401.1428
ISS 01 Nov 14:43:58 14:45:54 14° 13° (NNE) 14:47:50 145.800 FM
Gurwin Techsat 1B 01 Nov 14:49:46 14:54:54 53° 72° (ENE) 15:00:04 435.225 FM
JAS-1B 01 Nov 14:52:25 14:57:48 40° 262° (W) 15:03:09 435.800 - 435.900 CW/SSB
TMSAT-1 01 Nov 14:55:34 15:00:34 45° 70° (ENE) 15:05:36 436.925 FM
KITSAT 1 01 Nov 14:56:50 14:59:46 12° 341° (NNW) 15:02:43 435.175 FM
AO-7 01 Nov 14:59:13 15:05:24 24° 54° (NE) 15:11:35 29.400 - 29.500 MHz
UOSAT-12 01 Nov 14:59:39 15:02:23 15° 320° (NW) 15:05:10 437.025 FM, 437.400 FM
AO-Echo 01 Nov 15:02:50 15:07:38 47° 261° (W) 15:12:37 ?
Uribyol 2 01 Nov 15:11:30 15:16:32 48° 260° (W) 15:21:36 436.500 FM
ITAMSAT 1 01 Nov 15:19:53 15:24:49 43° 261° (W) 15:29:48 435.822 SSB
Uosat F 01 Nov 15:20:48 15:22:02 11° 58° (ENE) 15:23:16 435.120 FM
Saudisat 1A 01 Nov 15:23:56 15:28:16 56° 242° (WSW) 15:32:35 436.775 MHz
Oscar 19 01 Nov 15:31:28 15:34:04 14° 269° (W) 15:36:41 437.125 CW, 437.150 USB
JAS-2 01 Nov 16:01:58 16:04:30 12° 51° (NE) 16:07:08 435.800 - 435.900 CW/SSB, 435.910 FM
AO-27 01 Nov 16:10:19 16:13:13 15° 269° (W) 16:16:09 436.795 MHz FM
ISS 01 Nov 16:20:00 16:23:14 46° 32° (NNE) 16:26:28 145.800 FM
Gurwin Techsat 1B 01 Nov 16:31:32 16:35:10 19° 268° (W) 16:38:50 435.225 FM
TMSAT-1 01 Nov 16:36:35 16:40:40 22° 267° (W) 16:44:46 436.925 FM
AO-7 01 Nov 16:49:02 16:57:18 80° 253° (WSW) 17:05:39 29.400 - 29.500 MHz
Uosat F 01 Nov 16:54:59 17:00:01 87° 75° (ENE) 17:05:05 435.120 FM
KITSAT 1 01 Nov 16:58:06 16:59:50 11° 14° (NNE) 17:01:33 435.175 FM
Hamsat 01 Nov 17:20:24 17:23:20 19° 67° (ENE) 17:26:16 145.90 MHz
OPAL 01 Nov 17:30:51 17:33:12 13° 93° (E) 17:35:33 ?
JAS-2 01 Nov 17:41:43 17:47:58 66° 72° (ENE) 17:55:05 435.800 - 435.900 CW/SSB, 435.910 FM
ISS 01 Nov 17:57:13 17:59:42 20° 228° (SW) 18:02:11 145.800 FM
AO-7 01 Nov 18:47:12 18:51:15 14° 271° (W) 18:55:21 29.400 - 29.500 MHz
KITSAT 1 01 Nov 18:51:45 18:58:35 29° 42° (NE) 19:05:21 435.175 FM
SO-67 01 Nov 18:52:42 18:55:20 21° 70° (ENE) 18:57:59 435.3500 MHz FM
Hamsat 01 Nov 18:55:12 18:59:02 35° 263° (W) 19:02:52 145.90 MHz
OPAL 01 Nov 19:07:37 19:12:32 66° 289° (WNW) 19:17:25 ?
RS-15 01 Nov 19:11:36 19:14:19 11° 95° (E) 19:17:01 29.354 - 29.394 USB, Beacon 29.352 USB
STRAND 1 01 Nov 19:27:35 19:32:01 29° 96° (E) 19:36:24 ?
JAS-2 01 Nov 19:29:06 19:33:43 21° 272° (W) 19:38:45 435.800 - 435.900 CW/SSB, 435.910 FM
SO-50 01 Nov 19:30:44 19:35:08 33° 49° (NE) 19:39:32 436.795 FM
HO-68 01 Nov 19:49:01 19:53:59 21° 56° (ENE) 19:58:58 435.675 MHz FM
UOSAT-12 01 Nov 20:09:20 20:10:45 11° 35° (NE) 20:12:10 437.025 FM, 437.400 FM
SO-67 01 Nov 20:25:39 20:28:13 20° 265° (W) 20:30:48 435.3500 MHz FM
KITSAT 1 01 Nov 20:46:41 20:54:45 76° 244° (WSW) 21:02:46 435.175 FM
STRAND 1 01 Nov 21:06:36 21:11:11 33° 292° (WNW) 21:15:45 ?
UKube-1 01 Nov 21:08:37 21:11:36 18° 65° (ENE) 21:14:36 145.840 MHz, 145.915 MHz
MaSat-1 01 Nov 21:09:48 21:10:19 10° 105° (ESE) 21:10:50 437.345 MHz
SO-50 01 Nov 21:11:20 21:15:39 32° 246° (WSW) 21:19:58 436.795 FM
